Time,TemperatureF,DewpointF,PressureIn,WindDirection,WindDirectionDegrees,WindSpeedMPH,WindSpeedGustMPH,Humidity,HourlyPrecipIn,Conditions,Clouds,dailyrainin,SoftwareType,DateUTC
2013-07-16 00:01:00,72.3,65.0,29.47,SW,225,2.0,4.0,79,0.00,,,0.00,Rainwise IP-100,2013-07-16 04:01:00,
2013-07-16 00:06:00,72.1,66.0,29.47,South,180,2.0,3.0,81,0.00,,,0.00,Rainwise IP-100,2013-07-16 04:06:00,
2013-07-16 00:08:00,72.1,65.0,29.47,South,180,1.0,3.0,80,0.00,,,0.00,Rainwise IP-100,2013-07-16 04:08:00,
2013-07-16 00:11:00,71.9,66.0,29.47,South,180,1.0,2.0,81,0.00,,,0.00,Rainwise IP-100,2013-07-16 04:11:00,
2013-07-16 00:16:00,71.9,66.0,29.47,SSW,202,2.0,2.0,82,0.00,,,0.00,Rainwise IP-100,2013-07-16 04:16:00,
2013-07-16 00:21:00,72.1,66.0,29.48,SSW,202,2.0,4.0,82,0.00,,,0.00,Rainwise IP-100,2013-07-16 04:21:00,
2013-07-16 00:26:00,71.9,66.0,29.48,SW,225,1.0,4.0,83,0.00,,,0.00,Rainwise IP-100,2013-07-16 04:26:00,
2013-07-16 00:31:00,71.7,66.0,29.48,SW,225,0.0,2.0,83,0.00,,,0.00,Rainwise IP-100,2013-07-16 04:31:00,
2013-07-16 00:36:00,71.7,66.0,29.48,SSE,157,2.0,4.0,84,0.00,,,0.00,Rainwise IP-100,2013-07-16 04:36:00,
2013-07-16 00:41:00,71.5,66.0,29.47,SSE,157,0.0,2.0,84,0.00,,,0.00,Rainwise IP-100,2013-07-16 04:41:00,
2013-07-16 00:46:00,71.1,66.0,29.48,SSE,157,1.0,1.0,85,0.00,,,0.00,Rainwise IP-100,2013-07-16 04:46:00,
2013-07-16 00:51:00,70.7,66.0,29.48,SSE,157,2.0,2.0,86,0.00,,,0.00,Rainwise IP-100,2013-07-16 04:51:00,
2013-07-16 00:56:00,70.4,66.0,29.47,SSE,157,0.0,2.0,87,0.00,,,0.00,Rainwise IP-100,2013-07-16 04:56:00,
2013-07-16 01:01:00,70.3,66.0,29.47,SSE,157,0.0,2.0,88,0.00,,,0.00,Rainwise IP-100,2013-07-16 05:01:00,
2013-07-16 01:06:00,70.1,66.0,29.47,SSE,157,0.0,2.0,88,0.00,,,0.00,Rainwise IP-100,2013-07-16 05:06:00,
2013-07-16 01:11:00,69.8,66.0,29.47,SSE,157,0.0,0.0,89,0.00,,,0.00,Rainwise IP-100,2013-07-16 05:11:00,
2013-07-16 01:16:00,69.7,66.0,29.47,SSE,157,2.0,2.0,89,0.00,,,0.00,Rainwise IP-100,2013-07-16 05:16:00,
2013-07-16 01:21:00,69.7,66.0,29.47,SE,135,2.0,2.0,90,0.00,,,0.00,Rainwise IP-100,2013-07-16 05:21:00,
2013-07-16 01:26:00,70.0,66.0,29.47,SE,135,1.0,2.0,89,0.00,,,0.00,Rainwise IP-100,2013-07-16 05:26:00,
2013-07-16 01:31:00,69.9,66.0,29.47,South,180,2.0,2.0,89,0.00,,,0.00,Rainwise IP-100,2013-07-16 05:31:00,
2013-07-16 01:37:00,70.3,66.0,29.47,SSE,157,2.0,2.0,89,0.00,,,0.00,Rainwise IP-100,2013-07-16 05:37:00,
2013-07-16 01:42:00,70.1,67.0,29.47,ESE,112,2.0,3.0,91,0.00,,,0.00,Rainwise IP-100,2013-07-16 05:42:00,
2013-07-16 01:47:00,69.8,67.0,29.47,SE,135,2.0,2.0,92,0.00,,,0.00,Rainwise IP-100,2013-07-16 05:47:00,
2013-07-16 01:52:00,69.6,67.0,29.47,SSE,157,1.0,2.0,92,0.00,,,0.00,Rainwise IP-100,2013-07-16 05:52:00,
2013-07-16 01:57:00,69.7,67.0,29.47,SE,135,1.0,2.0,92,0.00,,,0.00,Rainwise IP-100,2013-07-16 05:57:00,
2013-07-16 02:02:00,69.6,67.0,29.47,SE,135,2.0,2.0,92,0.00,,,0.00,Rainwise IP-100,2013-07-16 06:02:00,
2013-07-16 02:07:00,69.4,67.0,29.47,SE,135,2.0,2.0,93,0.00,,,0.00,Rainwise IP-100,2013-07-16 06:07:00,
2013-07-16 02:12:00,69.2,67.0,29.47,SSE,157,1.0,2.0,94,0.00,,,0.00,Rainwise IP-100,2013-07-16 06:12:00,
2013-07-16 02:17:00,69.2,67.0,29.47,SSE,157,2.0,2.0,94,0.00,,,0.00,Rainwise IP-100,2013-07-16 06:17:00,
2013-07-16 02:22:00,69.2,67.0,29.47,SE,135,1.0,2.0,94,0.00,,,0.00,Rainwise IP-100,2013-07-16 06:22:00,
2013-07-16 02:27:00,69.0,67.0,29.47,SE,135,1.0,2.0,95,0.00,,,0.00,Rainwise IP-100,2013-07-16 06:27:00,
2013-07-16 02:32:00,68.9,67.0,29.47,SSE,157,2.0,2.0,95,0.00,,,0.00,Rainwise IP-100,2013-07-16 06:32:00,
2013-07-16 02:37:00,68.8,67.0,29.47,SSE,157,1.0,2.0,95,0.00,,,0.00,Rainwise IP-100,2013-07-16 06:37:00,
2013-07-16 02:42:00,68.6,67.0,29.47,SSE,157,2.0,2.0,96,0.00,,,0.00,Rainwise IP-100,2013-07-16 06:42:00,
2013-07-16 02:47:00,68.4,67.0,29.47,SSE,157,1.0,2.0,96,0.00,,,0.00,Rainwise IP-100,2013-07-16 06:47:00,
2013-07-16 02:52:00,68.3,67.0,29.47,SSE,157,1.0,2.0,97,0.00,,,0.00,Rainwise IP-100,2013-07-16 06:52:00,
2013-07-16 02:57:00,68.2,67.0,29.47,SSE,157,1.0,2.0,97,0.00,,,0.00,Rainwise IP-100,2013-07-16 06:57:00,
2013-07-16 03:03:00,68.2,67.0,29.47,South,180,1.0,2.0,97,0.00,,,0.00,Rainwise IP-100,2013-07-16 07:03:00,
2013-07-16 03:08:00,68.1,67.0,29.47,South,180,1.0,2.0,97,0.00,,,0.00,Rainwise IP-100,2013-07-16 07:08:00,
2013-07-16 03:15:00,68.3,67.0,29.47,SSE,157,2.0,3.0,98,0.00,,,0.00,Rainwise IP-100,2013-07-16 07:15:00,
2013-07-16 03:20:00,68.2,67.0,29.47,SE,135,1.0,2.0,98,0.00,,,0.00,Rainwise IP-100,2013-07-16 07:20:00,
2013-07-16 03:25:00,68.2,67.0,29.47,South,180,1.0,2.0,98,0.00,,,0.00,Rainwise IP-100,2013-07-16 07:25:00,
2013-07-16 03:31:00,68.2,67.0,29.47,SW,225,0.0,3.0,98,0.00,,,0.00,Rainwise IP-100,2013-07-16 07:31:00,
2013-07-16 03:36:00,68.0,67.0,29.47,South,180,1.0,2.0,98,0.00,,,0.00,Rainwise IP-100,2013-07-16 07:36:00,
2013-07-16 03:41:00,67.9,67.0,29.47,SE,135,1.0,2.0,97,0.00,,,0.00,Rainwise IP-100,2013-07-16 07:41:00,
2013-07-16 03:46:00,67.9,67.0,29.47,SSE,157,2.0,2.0,97,0.00,,,0.00,Rainwise IP-100,2013-07-16 07:46:00,
2013-07-16 03:51:00,67.9,67.0,29.47,South,180,2.0,3.0,98,0.00,,,0.00,Rainwise IP-100,2013-07-16 07:51:00,
2013-07-16 03:56:00,68.1,67.0,29.47,SE,135,1.0,3.0,99,0.00,,,0.00,Rainwise IP-100,2013-07-16 07:56:00,
2013-07-16 04:01:00,68.1,67.0,29.47,SE,135,0.0,2.0,98,0.00,,,0.00,Rainwise IP-100,2013-07-16 08:01:00,
2013-07-16 04:06:00,68.1,67.0,29.47,SSE,157,2.0,2.0,98,0.00,,,0.00,Rainwise IP-100,2013-07-16 08:06:00,
2013-07-16 04:11:00,68.0,67.0,29.47,SSE,157,1.0,3.0,98,0.00,,,0.00,Rainwise IP-100,2013-07-16 08:11:00,
2013-07-16 04:16:00,68.1,67.0,29.47,South,180,2.0,2.0,98,0.00,,,0.00,Rainwise IP-100,2013-07-16 08:16:00,
2013-07-16 04:21:00,67.9,67.0,29.47,WSW,247,1.0,2.0,98,0.00,,,0.00,Rainwise IP-100,2013-07-16 08:21:00,
2013-07-16 04:26:00,67.9,67.0,29.47,SSE,157,0.0,2.0,98,0.00,,,0.00,Rainwise IP-100,2013-07-16 08:26:00,
2013-07-16 04:31:00,67.8,67.0,29.47,West,270,0.0,2.0,98,0.00,,,0.00,Rainwise IP-100,2013-07-16 08:31:00,
2013-07-16 04:36:00,67.6,66.0,29.47,SSW,202,0.0,2.0,97,0.00,,,0.00,Rainwise IP-100,2013-07-16 08:36:00,
2013-07-16 04:41:00,67.4,66.0,29.47,WNW,292,1.0,2.0,97,0.00,,,0.00,Rainwise IP-100,2013-07-16 08:41:00,
2013-07-16 04:46:00,67.3,66.0,29.47,SW,225,0.0,2.0,97,0.00,,,0.00,Rainwise IP-100,2013-07-16 08:46:00,
2013-07-16 04:51:00,67.3,66.0,29.47,SW,225,2.0,2.0,96,0.00,,,0.00,Rainwise IP-100,2013-07-16 08:51:00,
2013-07-16 04:56:00,67.6,66.0,29.47,WSW,247,2.0,2.0,96,0.00,,,0.00,Rainwise IP-100,2013-07-16 08:56:00,
2013-07-16 05:01:00,67.7,66.0,29.47,SW,225,2.0,3.0,95,0.00,,,0.00,Rainwise IP-100,2013-07-16 09:01:00,
2013-07-16 05:06:00,67.7,66.0,29.48,WSW,247,0.0,2.0,95,0.00,,,0.00,Rainwise IP-100,2013-07-16 09:06:00,
2013-07-16 05:11:00,67.8,66.0,29.47,SW,225,2.0,2.0,95,0.00,,,0.00,Rainwise IP-100,2013-07-16 09:11:00,
2013-07-16 05:16:00,67.7,66.0,29.48,SW,225,0.0,2.0,94,0.00,,,0.00,Rainwise IP-100,2013-07-16 09:16:00,
2013-07-16 05:21:00,67.9,66.0,29.48,SW,225,2.0,2.0,93,0.00,,,0.00,Rainwise IP-100,2013-07-16 09:21:00,
2013-07-16 05:26:00,68.3,65.0,29.48,SW,225,0.0,2.0,90,0.00,,,0.00,Rainwise IP-100,2013-07-16 09:26:00,
2013-07-16 05:31:00,68.2,65.0,29.48,SW,225,0.0,2.0,90,0.00,,,0.00,Rainwise IP-100,2013-07-16 09:31:00,
2013-07-16 05:36:00,67.9,65.0,29.48,SW,225,2.0,2.0,91,0.00,,,0.00,Rainwise IP-100,2013-07-16 09:36:00,
2013-07-16 05:41:00,67.9,65.0,29.48,SSW,202,2.0,2.0,91,0.00,,,0.00,Rainwise IP-100,2013-07-16 09:41:00,
2013-07-16 05:46:00,67.9,65.0,29.48,WSW,247,1.0,2.0,91,0.00,,,0.00,Rainwise IP-100,2013-07-16 09:46:00,
2013-07-16 05:51:00,67.9,65.0,29.49,WSW,247,2.0,3.0,91,0.00,,,0.00,Rainwise IP-100,2013-07-16 09:51:00,
2013-07-16 05:56:00,67.8,65.0,29.49,WNW,292,2.0,2.0,91,0.00,,,0.00,Rainwise IP-100,2013-07-16 09:56:00,
2013-07-16 06:01:00,67.8,65.0,29.49,West,270,2.0,3.0,92,0.00,,,0.00,Rainwise IP-100,2013-07-16 10:01:00,
2013-07-16 06:06:00,67.9,65.0,29.49,SW,225,1.0,2.0,92,0.00,,,0.00,Rainwise IP-100,2013-07-16 10:06:00,
2013-07-16 06:11:00,67.9,65.0,29.49,SW,225,0.0,2.0,92,0.00,,,0.00,Rainwise IP-100,2013-07-16 10:11:00,
2013-07-16 06:16:00,68.3,65.0,29.49,WSW,247,1.0,2.0,92,0.00,,,0.00,Rainwise IP-100,2013-07-16 10:16:00,
2013-07-16 06:21:00,68.7,66.0,29.49,SW,225,0.0,3.0,92,0.00,,,0.00,Rainwise IP-100,2013-07-16 10:21:00,
2013-07-16 06:26:00,69.1,66.0,29.49,SW,225,2.0,2.0,92,0.00,,,0.00,Rainwise IP-100,2013-07-16 10:26:00,
2013-07-16 06:31:00,69.2,66.0,29.50,South,180,1.0,2.0,92,0.00,,,0.00,Rainwise IP-100,2013-07-16 10:31:00,
2013-07-16 06:37:00,69.5,66.0,29.50,South,180,0.0,1.0,91,0.00,,,0.00,Rainwise IP-100,2013-07-16 10:37:00,
2013-07-16 06:42:00,69.9,67.0,29.50,SSE,157,0.0,2.0,92,0.00,,,0.00,Rainwise IP-100,2013-07-16 10:42:00,
2013-07-16 06:47:00,69.9,68.0,29.50,SSE,157,3.0,3.0,93,0.00,,,0.00,Rainwise IP-100,2013-07-16 10:47:00,
2013-07-16 06:52:00,70.1,67.0,29.50,SSE,157,1.0,3.0,92,0.00,,,0.00,Rainwise IP-100,2013-07-16 10:52:00,
2013-07-16 06:57:00,70.7,67.0,29.50,SE,135,1.0,3.0,90,0.00,,,0.00,Rainwise IP-100,2013-07-16 10:57:00,
2013-07-16 07:04:00,71.1,68.0,29.50,SE,135,2.0,2.0,91,0.00,,,0.00,Rainwise IP-100,2013-07-16 11:04:00,
2013-07-16 07:13:00,71.3,69.0,29.50,SSE,157,2.0,3.0,94,0.00,,,0.00,Rainwise IP-100,2013-07-16 11:13:00,
2013-07-16 07:19:00,71.9,69.0,29.51,SE,135,0.0,3.0,90,0.00,,,0.00,Rainwise IP-100,2013-07-16 11:19:00,
2013-07-16 07:24:00,72.7,69.0,29.51,SE,135,0.0,1.0,89,0.00,,,0.00,Rainwise IP-100,2013-07-16 11:24:00,
2013-07-16 07:29:00,73.6,69.0,29.51,SE,135,0.0,2.0,85,0.00,,,0.00,Rainwise IP-100,2013-07-16 11:29:00,
2013-07-16 07:34:00,74.2,69.0,29.52,SE,135,2.0,2.0,85,0.00,,,0.00,Rainwise IP-100,2013-07-16 11:34:00,
2013-07-16 07:39:00,74.8,68.0,29.52,SE,135,1.0,2.0,81,0.00,,,0.00,Rainwise IP-100,2013-07-16 11:39:00,
2013-07-16 07:45:00,76.0,69.0,29.52,SE,135,0.0,2.0,81,0.00,,,0.00,Rainwise IP-100,2013-07-16 11:45:00,
2013-07-16 07:50:00,77.1,70.0,29.53,SE,135,0.0,0.0,79,0.00,,,0.00,Rainwise IP-100,2013-07-16 11:50:00,
2013-07-16 07:55:00,78.2,70.0,29.53,WSW,247,0.0,2.0,76,0.00,,,0.00,Rainwise IP-100,2013-07-16 11:55:00,
2013-07-16 08:00:00,78.8,70.0,29.53,NW,315,0.0,1.0,76,0.00,,,0.00,Rainwise IP-100,2013-07-16 12:00:00,
2013-07-16 08:05:00,79.4,71.0,29.53,WSW,247,2.0,2.0,76,0.00,,,0.00,Rainwise IP-100,2013-07-16 12:05:00,
2013-07-16 08:10:00,79.2,69.0,29.54,WSW,247,1.0,3.0,70,0.00,,,0.00,Rainwise IP-100,2013-07-16 12:10:00,
2013-07-16 08:15:00,79.4,68.0,29.54,WNW,292,1.0,3.0,68,0.00,,,0.00,Rainwise IP-100,2013-07-16 12:15:00,
2013-07-16 08:20:00,79.8,69.0,29.54,NW,315,0.0,4.0,70,0.00,,,0.00,Rainwise IP-100,2013-07-16 12:20:00,
2013-07-16 08:25:00,80.5,69.0,29.54,West,270,0.0,2.0,68,0.00,,,0.00,Rainwise IP-100,2013-07-16 12:25:00,
2013-07-16 08:30:00,81.3,71.0,29.54,NNW,337,1.0,2.0,70,0.00,,,0.00,Rainwise IP-100,2013-07-16 12:30:00,
2013-07-16 08:35:00,81.2,69.0,29.54,NW,315,2.0,2.0,68,0.00,,,0.00,Rainwise IP-100,2013-07-16 12:35:00,
2013-07-16 08:40:00,81.2,69.0,29.54,NW,315,1.0,3.0,68,0.00,,,0.00,Rainwise IP-100,2013-07-16 12:40:00,
2013-07-16 08:45:00,81.4,68.0,29.54,WNW,292,2.0,5.0,64,0.00,,,0.00,Rainwise IP-100,2013-07-16 12:45:00,
2013-07-16 08:50:00,81.6,68.0,29.54,WNW,292,1.0,4.0,63,0.00,,,0.00,Rainwise IP-100,2013-07-16 12:50:00,
2013-07-16 08:55:00,81.9,69.0,29.54,North,360,0.0,4.0,65,0.00,,,0.00,Rainwise IP-100,2013-07-16 12:55:00,
2013-07-16 09:00:00,81.8,68.0,29.54,WNW,292,2.0,4.0,64,0.00,,,0.00,Rainwise IP-100,2013-07-16 13:00:00,
2013-07-16 09:05:00,81.5,69.0,29.54,NE,45,3.0,6.0,67,0.00,,,0.00,Rainwise IP-100,2013-07-16 13:05:00,
2013-07-16 09:10:00,82.1,68.0,29.54,WNW,292,6.0,6.0,64,0.00,,,0.00,Rainwise IP-100,2013-07-16 13:10:00,
2013-07-16 09:15:00,82.8,71.0,29.54,West,270,2.0,6.0,67,0.00,,,0.00,Rainwise IP-100,2013-07-16 13:15:00,
2013-07-16 09:20:00,82.7,69.0,29.55,WNW,292,2.0,6.0,65,0.00,,,0.00,Rainwise IP-100,2013-07-16 13:20:00,
2013-07-16 09:25:00,82.5,71.0,29.54,NNW,337,2.0,5.0,68,0.00,,,0.00,Rainwise IP-100,2013-07-16 13:25:00,
2013-07-16 09:30:00,81.9,70.0,29.54,North,360,2.0,8.0,68,0.00,,,0.00,Rainwise IP-100,2013-07-16 13:30:00,
2013-07-16 09:35:00,82.2,69.0,29.55,WNW,292,2.0,6.0,65,0.00,,,0.00,Rainwise IP-100,2013-07-16 13:35:00,
2013-07-16 09:40:00,82.8,68.0,29.54,NE,45,1.0,6.0,62,0.00,,,0.00,Rainwise IP-100,2013-07-16 13:40:00,
2013-07-16 09:45:00,82.9,71.0,29.54,North,360,6.0,6.0,67,0.00,,,0.00,Rainwise IP-100,2013-07-16 13:45:00,
2013-07-16 09:50:00,83.2,71.0,29.54,NNE,22,1.0,6.0,66,0.00,,,0.00,Rainwise IP-100,2013-07-16 13:50:00,
2013-07-16 09:55:00,83.4,67.0,29.54,West,270,3.0,6.0,59,0.00,,,0.00,Rainwise IP-100,2013-07-16 13:55:00,
2013-07-16 10:00:00,83.6,70.0,29.54,North,360,3.0,6.0,64,0.00,,,0.00,Rainwise IP-100,2013-07-16 14:00:00,
2013-07-16 10:05:00,84.0,69.0,29.54,NW,315,2.0,7.0,60,0.00,,,0.00,Rainwise IP-100,2013-07-16 14:05:00,
2013-07-16 10:10:00,83.8,69.0,29.54,North,360,2.0,6.0,62,0.00,,,0.00,Rainwise IP-100,2013-07-16 14:10:00,
2013-07-16 10:15:00,84.3,71.0,29.54,North,360,5.0,5.0,65,0.00,,,0.00,Rainwise IP-100,2013-07-16 14:15:00,
2013-07-16 10:20:00,84.4,69.0,29.54,NNW,337,0.0,6.0,60,0.00,,,0.00,Rainwise IP-100,2013-07-16 14:20:00,
2013-07-16 10:25:00,84.9,71.0,29.54,South,180,0.0,2.0,64,0.00,,,0.00,Rainwise IP-100,2013-07-16 14:25:00,
2013-07-16 10:30:00,84.6,69.0,29.54,NE,45,1.0,4.0,60,0.00,,,0.00,Rainwise IP-100,2013-07-16 14:30:00,
2013-07-16 10:35:00,84.9,70.0,29.55,WNW,292,2.0,4.0,61,0.00,,,0.00,Rainwise IP-100,2013-07-16 14:35:00,
2013-07-16 10:40:00,85.6,73.0,29.54,North,360,1.0,3.0,67,0.00,,,0.00,Rainwise IP-100,2013-07-16 14:40:00,
2013-07-16 10:45:00,85.6,71.0,29.54,North,360,1.0,5.0,62,0.00,,,0.00,Rainwise IP-100,2013-07-16 14:45:00,
2013-07-16 10:50:00,86.1,72.0,29.55,North,360,2.0,6.0,63,0.00,,,0.00,Rainwise IP-100,2013-07-16 14:50:00,
2013-07-16 10:55:00,86.1,71.0,29.54,North,360,2.0,2.0,61,0.00,,,0.00,Rainwise IP-100,2013-07-16 14:55:00,
2013-07-16 11:00:00,85.9,72.0,29.54,North,360,1.0,4.0,63,0.00,,,0.00,Rainwise IP-100,2013-07-16 15:00:00,
2013-07-16 11:05:00,84.9,71.0,29.54,NNE,22,2.0,7.0,64,0.00,,,0.00,Rainwise IP-100,2013-07-16 15:05:00,
2013-07-16 11:10:00,84.9,71.0,29.54,NNE,22,1.0,4.0,63,0.00,,,0.00,Rainwise IP-100,2013-07-16 15:10:00,
2013-07-16 11:15:00,85.9,72.0,29.54,North,360,2.0,4.0,63,0.00,,,0.00,Rainwise IP-100,2013-07-16 15:15:00,
2013-07-16 11:20:00,85.7,71.0,29.54,NNE,22,1.0,6.0,61,0.00,,,0.00,Rainwise IP-100,2013-07-16 15:20:00,
2013-07-16 11:25:00,85.9,71.0,29.54,North,360,4.0,4.0,62,0.00,,,0.00,Rainwise IP-100,2013-07-16 15:25:00,
2013-07-16 11:30:00,85.5,69.0,29.54,North,360,2.0,6.0,59,0.00,,,0.00,Rainwise IP-100,2013-07-16 15:30:00,
2013-07-16 11:35:00,85.4,70.0,29.54,NNW,337,0.0,7.0,60,0.00,,,0.00,Rainwise IP-100,2013-07-16 15:35:00,
2013-07-16 11:40:00,86.2,72.0,29.54,NE,45,0.0,2.0,63,0.00,,,0.00,Rainwise IP-100,2013-07-16 15:40:00,
2013-07-16 11:45:00,86.6,72.0,29.54,NNE,22,2.0,6.0,64,0.00,,,0.00,Rainwise IP-100,2013-07-16 15:45:00,
2013-07-16 11:50:00,86.5,71.0,29.54,North,360,2.0,6.0,60,0.00,,,0.00,Rainwise IP-100,2013-07-16 15:50:00,
2013-07-16 11:55:00,86.5,71.0,29.54,NNW,337,2.0,4.0,60,0.00,,,0.00,Rainwise IP-100,2013-07-16 15:55:00,
2013-07-16 12:00:00,85.8,69.0,29.54,North,360,5.0,6.0,59,0.00,,,0.00,Rainwise IP-100,2013-07-16 16:00:00,
2013-07-16 12:05:00,85.8,70.0,29.54,NNE,22,5.0,6.0,60,0.00,,,0.00,Rainwise IP-100,2013-07-16 16:05:00,
2013-07-16 12:10:00,86.1,72.0,29.54,North,360,4.0,6.0,63,0.00,,,0.00,Rainwise IP-100,2013-07-16 16:10:00,
2013-07-16 12:15:00,85.8,69.0,29.54,NNE,22,3.0,6.0,57,0.00,,,0.00,Rainwise IP-100,2013-07-16 16:15:00,
2013-07-16 12:20:00,86.1,72.0,29.54,NNE,22,1.0,4.0,64,0.00,,,0.00,Rainwise IP-100,2013-07-16 16:20:00,
2013-07-16 12:25:00,86.2,71.0,29.54,NNE,22,7.0,7.0,61,0.00,,,0.00,Rainwise IP-100,2013-07-16 16:25:00,
2013-07-16 12:30:00,85.9,70.0,29.53,North,360,3.0,7.0,60,0.00,,,0.00,Rainwise IP-100,2013-07-16 16:30:00,
2013-07-16 12:35:00,86.5,70.0,29.53,NE,45,2.0,6.0,59,0.00,,,0.00,Rainwise IP-100,2013-07-16 16:35:00,
2013-07-16 12:40:00,86.6,72.0,29.53,North,360,4.0,7.0,62,0.00,,,0.00,Rainwise IP-100,2013-07-16 16:40:00,
2013-07-16 12:45:00,86.3,71.0,29.53,NNE,22,4.0,5.0,60,0.00,,,0.00,Rainwise IP-100,2013-07-16 16:45:00,
2013-07-16 12:50:00,86.3,71.0,29.53,NW,315,2.0,6.0,60,0.00,,,0.00,Rainwise IP-100,2013-07-16 16:50:00,
2013-07-16 12:55:00,86.8,71.0,29.53,NNE,22,2.0,5.0,60,0.00,,,0.00,Rainwise IP-100,2013-07-16 16:55:00,
2013-07-16 13:00:00,86.9,69.0,29.53,North,360,4.0,6.0,56,0.00,,,0.00,Rainwise IP-100,2013-07-16 17:00:00,
2013-07-16 13:05:00,86.9,70.0,29.53,NW,315,1.0,6.0,58,0.00,,,0.00,Rainwise IP-100,2013-07-16 17:05:00,
2013-07-16 13:10:00,86.4,69.0,29.52,NNE,22,2.0,5.0,57,0.00,,,0.00,Rainwise IP-100,2013-07-16 17:10:00,
2013-07-16 13:15:00,87.2,72.0,29.52,NNE,22,7.0,7.0,61,0.00,,,0.00,Rainwise IP-100,2013-07-16 17:15:00,
2013-07-16 13:20:00,86.0,68.0,29.52,NNE,22,7.0,9.0,55,0.00,,,0.00,Rainwise IP-100,2013-07-16 17:20:00,
2013-07-16 13:25:00,86.3,69.0,29.52,NNE,22,3.0,8.0,57,0.00,,,0.00,Rainwise IP-100,2013-07-16 17:25:00,
2013-07-16 13:30:00,86.5,69.0,29.52,North,360,4.0,7.0,57,0.00,,,0.00,Rainwise IP-100,2013-07-16 17:30:00,
2013-07-16 13:35:00,86.9,70.0,29.52,East,90,2.0,7.0,57,0.00,,,0.00,Rainwise IP-100,2013-07-16 17:35:00,
2013-07-16 13:40:00,87.1,69.0,29.52,NW,315,2.0,8.0,55,0.00,,,0.00,Rainwise IP-100,2013-07-16 17:40:00,
2013-07-16 13:45:00,87.1,69.0,29.51,North,360,3.0,6.0,56,0.00,,,0.00,Rainwise IP-100,2013-07-16 17:45:00,
2013-07-16 13:50:00,85.8,70.0,29.51,NNE,22,4.0,6.0,60,0.00,,,0.00,Rainwise IP-100,2013-07-16 17:50:00,
2013-07-16 13:55:00,85.8,69.0,29.51,NNE,22,2.0,5.0,57,0.00,,,0.00,Rainwise IP-100,2013-07-16 17:55:00,
2013-07-16 14:00:00,86.2,69.0,29.51,NE,45,5.0,7.0,57,0.00,,,0.00,Rainwise IP-100,2013-07-16 18:00:00,
2013-07-16 14:05:00,86.4,70.0,29.51,NE,45,2.0,6.0,59,0.00,,,0.00,Rainwise IP-100,2013-07-16 18:05:00,
2013-07-16 14:10:00,86.5,69.0,29.51,NE,45,5.0,7.0,57,0.00,,,0.00,Rainwise IP-100,2013-07-16 18:10:00,
2013-07-16 14:15:00,86.5,69.0,29.51,North,360,4.0,7.0,56,0.00,,,0.00,Rainwise IP-100,2013-07-16 18:15:00,
2013-07-16 14:20:00,86.7,71.0,29.51,NE,45,2.0,7.0,60,0.00,,,0.00,Rainwise IP-100,2013-07-16 18:20:00,
2013-07-16 14:25:00,86.7,71.0,29.51,NE,45,2.0,5.0,59,0.00,,,0.00,Rainwise IP-100,2013-07-16 18:25:00,
2013-07-16 14:30:00,86.2,70.0,29.50,NE,45,3.0,9.0,59,0.00,,,0.00,Rainwise IP-100,2013-07-16 18:30:00,
2013-07-16 14:35:00,86.9,70.0,29.50,North,360,2.0,5.0,57,0.00,,,0.00,Rainwise IP-100,2013-07-16 18:35:00,
2013-07-16 14:40:00,87.5,71.0,29.50,NNE,22,3.0,6.0,58,0.00,,,0.00,Rainwise IP-100,2013-07-16 18:40:00,
2013-07-16 14:45:00,86.7,69.0,29.50,NNE,22,6.0,6.0,56,0.00,,,0.00,Rainwise IP-100,2013-07-16 18:45:00,
2013-07-16 14:50:00,86.8,68.0,29.50,NE,45,3.0,8.0,55,0.00,,,0.00,Rainwise IP-100,2013-07-16 18:50:00,
2013-07-16 14:55:00,86.7,70.0,29.50,NNE,22,3.0,6.0,58,0.00,,,0.00,Rainwise IP-100,2013-07-16 18:55:00,
2013-07-16 15:00:00,87.1,70.0,29.49,North,360,7.0,7.0,57,0.00,,,0.00,Rainwise IP-100,2013-07-16 19:00:00,
2013-07-16 15:05:00,85.8,69.0,29.49,NE,45,2.0,7.0,57,0.00,,,0.00,Rainwise IP-100,2013-07-16 19:05:00,
2013-07-16 15:10:00,85.9,68.0,29.49,NNE,22,2.0,6.0,56,0.00,,,0.00,Rainwise IP-100,2013-07-16 19:10:00,
2013-07-16 15:15:00,85.7,71.0,29.49,NNE,22,2.0,6.0,61,0.00,,,0.00,Rainwise IP-100,2013-07-16 19:15:00,
2013-07-16 15:20:00,86.0,70.0,29.49,NE,45,4.0,5.0,60,0.00,,,0.00,Rainwise IP-100,2013-07-16 19:20:00,
2013-07-16 15:25:00,86.2,71.0,29.49,NNE,22,2.0,6.0,60,0.00,,,0.00,Rainwise IP-100,2013-07-16 19:25:00,
2013-07-16 15:30:00,85.9,69.0,29.49,NNE,22,3.0,6.0,58,0.00,,,0.00,Rainwise IP-100,2013-07-16 19:30:00,
2013-07-16 15:35:00,85.6,71.0,29.49,North,360,2.0,6.0,62,0.00,,,0.00,Rainwise IP-100,2013-07-16 19:35:00,
2013-07-16 15:40:00,86.6,70.0,29.49,North,360,3.0,5.0,59,0.00,,,0.00,Rainwise IP-100,2013-07-16 19:40:00,
2013-07-16 15:45:00,87.2,69.0,29.49,NNE,22,2.0,9.0,55,0.00,,,0.00,Rainwise IP-100,2013-07-16 19:45:00,
2013-07-16 15:50:00,87.8,70.0,29.49,NNE,22,2.0,6.0,56,0.00,,,0.00,Rainwise IP-100,2013-07-16 19:50:00,
2013-07-16 15:55:00,87.5,67.0,29.49,North,360,1.0,7.0,51,0.00,,,0.00,Rainwise IP-100,2013-07-16 19:55:00,
2013-07-16 16:00:00,87.1,66.0,29.49,NNE,22,5.0,7.0,51,0.00,,,0.00,Rainwise IP-100,2013-07-16 20:00:00,
2013-07-16 16:05:00,87.7,67.0,29.49,NNE,22,4.0,7.0,51,0.00,,,0.00,Rainwise IP-100,2013-07-16 20:05:00,
2013-07-16 16:10:00,87.7,71.0,29.49,North,360,3.0,6.0,57,0.00,,,0.00,Rainwise IP-100,2013-07-16 20:10:00,
2013-07-16 16:15:00,87.2,70.0,29.49,NNW,337,4.0,6.0,57,0.00,,,0.00,Rainwise IP-100,2013-07-16 20:15:00,
2013-07-16 16:20:00,87.5,68.0,29.49,NE,45,4.0,6.0,53,0.00,,,0.00,Rainwise IP-100,2013-07-16 20:20:00,
2013-07-16 16:25:00,87.9,69.0,29.48,NNE,22,5.0,7.0,53,0.00,,,0.00,Rainwise IP-100,2013-07-16 20:25:00,
2013-07-16 16:30:00,88.2,67.0,29.49,North,360,4.0,7.0,50,0.00,,,0.00,Rainwise IP-100,2013-07-16 20:30:00,
2013-07-16 16:35:00,88.3,69.0,29.49,North,360,4.0,8.0,53,0.00,,,0.00,Rainwise IP-100,2013-07-16 20:35:00,
2013-07-16 16:40:00,88.4,68.0,29.49,NW,315,4.0,7.0,51,0.00,,,0.00,Rainwise IP-100,2013-07-16 20:40:00,
2013-07-16 16:45:00,88.1,70.0,29.48,North,360,4.0,9.0,56,0.00,,,0.00,Rainwise IP-100,2013-07-16 20:45:00,
2013-07-16 16:50:00,88.5,71.0,29.48,North,360,3.0,7.0,56,0.00,,,0.00,Rainwise IP-100,2013-07-16 20:50:00,
2013-07-16 16:55:00,88.2,68.0,29.48,North,360,2.0,6.0,51,0.00,,,0.00,Rainwise IP-100,2013-07-16 20:55:00,
2013-07-16 17:00:00,88.1,70.0,29.48,North,360,2.0,7.0,55,0.00,,,0.00,Rainwise IP-100,2013-07-16 21:00:00,
2013-07-16 17:05:00,88.7,66.0,29.48,North,360,4.0,7.0,48,0.00,,,0.00,Rainwise IP-100,2013-07-16 21:05:00,
2013-07-16 17:10:00,88.8,69.0,29.48,NNW,337,2.0,7.0,53,0.00,,,0.00,Rainwise IP-100,2013-07-16 21:10:00,
2013-07-16 17:15:00,88.0,70.0,29.48,North,360,4.0,5.0,56,0.00,,,0.00,Rainwise IP-100,2013-07-16 21:15:00,
2013-07-16 17:20:00,87.7,68.0,29.48,NNW,337,4.0,6.0,53,0.00,,,0.00,Rainwise IP-100,2013-07-16 21:20:00,
2013-07-16 17:25:00,87.8,67.0,29.48,North,360,4.0,6.0,50,0.00,,,0.00,Rainwise IP-100,2013-07-16 21:25:00,
2013-07-16 17:30:00,87.9,69.0,29.48,North,360,2.0,6.0,54,0.00,,,0.00,Rainwise IP-100,2013-07-16 21:30:00,
2013-07-16 17:35:00,88.1,69.0,29.48,North,360,2.0,6.0,53,0.00,,,0.00,Rainwise IP-100,2013-07-16 21:35:00,
2013-07-16 17:40:00,87.9,69.0,29.48,NE,45,4.0,5.0,53,0.00,,,0.00,Rainwise IP-100,2013-07-16 21:40:00,
2013-07-16 17:45:00,87.9,70.0,29.48,North,360,2.0,7.0,56,0.00,,,0.00,Rainwise IP-100,2013-07-16 21:45:00,
2013-07-16 17:50:00,87.9,69.0,29.48,NNW,337,2.0,4.0,53,0.00,,,0.00,Rainwise IP-100,2013-07-16 21:50:00,
2013-07-16 17:55:00,88.1,69.0,29.48,North,360,4.0,6.0,54,0.00,,,0.00,Rainwise IP-100,2013-07-16 21:55:00,
2013-07-16 18:00:00,87.7,69.0,29.47,North,360,4.0,6.0,55,0.00,,,0.00,Rainwise IP-100,2013-07-16 22:00:00,
2013-07-16 18:05:00,87.4,69.0,29.47,North,360,2.0,7.0,56,0.00,,,0.00,Rainwise IP-100,2013-07-16 22:05:00,
2013-07-16 18:10:00,87.3,69.0,29.47,NNE,22,2.0,5.0,56,0.00,,,0.00,Rainwise IP-100,2013-07-16 22:10:00,
2013-07-16 18:15:00,87.5,69.0,29.47,North,360,2.0,4.0,55,0.00,,,0.00,Rainwise IP-100,2013-07-16 22:15:00,
2013-07-16 18:20:00,87.7,69.0,29.47,North,360,4.0,4.0,55,0.00,,,0.00,Rainwise IP-100,2013-07-16 22:20:00,
2013-07-16 18:25:00,86.9,69.0,29.47,North,360,3.0,5.0,56,0.00,,,0.00,Rainwise IP-100,2013-07-16 22:25:00,
2013-07-16 18:30:00,86.5,69.0,29.47,North,360,1.0,6.0,57,0.00,,,0.00,Rainwise IP-100,2013-07-16 22:30:00,
2013-07-16 18:35:00,86.6,71.0,29.47,North,360,1.0,6.0,60,0.00,,,0.00,Rainwise IP-100,2013-07-16 22:35:00,
2013-07-16 18:40:00,86.6,70.0,29.47,North,360,2.0,6.0,58,0.00,,,0.00,Rainwise IP-100,2013-07-16 22:40:00,
2013-07-16 18:45:00,86.4,70.0,29.47,North,360,3.0,6.0,58,0.00,,,0.00,Rainwise IP-100,2013-07-16 22:45:00,
2013-07-16 18:50:00,86.3,71.0,29.47,North,360,3.0,4.0,60,0.00,,,0.00,Rainwise IP-100,2013-07-16 22:50:00,
2013-07-16 18:55:00,85.9,70.0,29.47,North,360,3.0,6.0,60,0.00,,,0.00,Rainwise IP-100,2013-07-16 22:55:00,
2013-07-16 19:00:00,85.8,70.0,29.47,North,360,1.0,3.0,60,0.00,,,0.00,Rainwise IP-100,2013-07-16 23:00:00,
2013-07-16 19:05:00,85.9,70.0,29.47,NNW,337,1.0,3.0,60,0.00,,,0.00,Rainwise IP-100,2013-07-16 23:05:00,
2013-07-16 19:10:00,85.8,70.0,29.47,North,360,1.0,5.0,60,0.00,,,0.00,Rainwise IP-100,2013-07-16 23:10:00,
2013-07-16 19:15:00,85.5,70.0,29.47,NNW,337,3.0,6.0,60,0.00,,,0.00,Rainwise IP-100,2013-07-16 23:15:00,
2013-07-16 19:20:00,85.2,69.0,29.47,NNW,337,2.0,5.0,60,0.00,,,0.00,Rainwise IP-100,2013-07-16 23:20:00,
2013-07-16 19:25:00,85.1,70.0,29.47,NNW,337,2.0,4.0,61,0.00,,,0.00,Rainwise IP-100,2013-07-16 23:25:00,
2013-07-16 19:30:00,84.9,70.0,29.47,NNW,337,2.0,3.0,61,0.00,,,0.00,Rainwise IP-100,2013-07-16 23:30:00,
2013-07-16 19:35:00,84.6,70.0,29.47,North,360,1.0,4.0,62,0.00,,,0.00,Rainwise IP-100,2013-07-16 23:35:00,
2013-07-16 19:40:00,84.5,71.0,29.47,North,360,2.0,3.0,63,0.00,,,0.00,Rainwise IP-100,2013-07-16 23:40:00,
2013-07-16 19:45:00,84.3,70.0,29.47,North,360,2.0,2.0,63,0.00,,,0.00,Rainwise IP-100,2013-07-16 23:45:00,
2013-07-16 19:50:00,84.1,70.0,29.47,NNW,337,2.0,3.0,63,0.00,,,0.00,Rainwise IP-100,2013-07-16 23:50:00,
2013-07-16 19:55:00,83.5,70.0,29.47,NNW,337,1.0,2.0,64,0.00,,,0.00,Rainwise IP-100,2013-07-16 23:55:00,
2013-07-16 20:00:00,83.0,70.0,29.46,NW,315,2.0,2.0,65,0.00,,,0.00,Rainwise IP-100,2013-07-17 00:00:00,
2013-07-16 20:05:00,82.5,70.0,29.47,NW,315,2.0,2.0,66,0.00,,,0.00,Rainwise IP-100,2013-07-17 00:05:00,
2013-07-16 20:10:00,82.1,70.0,29.47,NW,315,1.0,2.0,68,0.00,,,0.00,Rainwise IP-100,2013-07-17 00:10:00,
2013-07-16 20:15:00,81.8,70.0,29.46,NW,315,1.0,2.0,68,0.00,,,0.00,Rainwise IP-100,2013-07-17 00:15:00,
2013-07-16 20:20:00,81.3,71.0,29.46,NW,315,1.0,2.0,70,0.00,,,0.00,Rainwise IP-100,2013-07-17 00:20:00,
2013-07-16 20:25:00,80.9,71.0,29.46,NW,315,2.0,2.0,71,0.00,,,0.00,Rainwise IP-100,2013-07-17 00:25:00,
2013-07-16 20:30:00,80.5,71.0,29.46,NW,315,1.0,2.0,73,0.00,,,0.00,Rainwise IP-100,2013-07-17 00:30:00,
2013-07-16 20:35:00,80.0,71.0,29.46,NW,315,2.0,2.0,74,0.00,,,0.00,Rainwise IP-100,2013-07-17 00:35:00,
2013-07-16 20:40:00,79.6,71.0,29.46,WNW,292,2.0,2.0,75,0.00,,,0.00,Rainwise IP-100,2013-07-17 00:40:00,
2013-07-16 20:45:00,79.5,70.0,29.46,WNW,292,2.0,3.0,74,0.00,,,0.00,Rainwise IP-100,2013-07-17 00:45:00,
2013-07-16 20:50:00,79.2,71.0,29.46,WNW,292,2.0,2.0,75,0.00,,,0.00,Rainwise IP-100,2013-07-17 00:50:00,
2013-07-16 20:55:00,79.1,70.0,29.46,WNW,292,2.0,2.0,74,0.00,,,0.00,Rainwise IP-100,2013-07-17 00:55:00,
2013-07-16 21:00:00,79.2,70.0,29.47,WNW,292,2.0,3.0,73,0.00,,,0.00,Rainwise IP-100,2013-07-17 01:00:00,
2013-07-16 21:05:00,78.7,71.0,29.46,West,270,1.0,2.0,77,0.00,,,0.00,Rainwise IP-100,2013-07-17 01:05:00,
2013-07-16 21:10:00,77.9,71.0,29.47,West,270,2.0,2.0,79,0.00,,,0.00,Rainwise IP-100,2013-07-17 01:10:00,
2013-07-16 21:15:00,77.3,71.0,29.47,West,270,1.0,2.0,81,0.00,,,0.00,Rainwise IP-100,2013-07-17 01:15:00,
2013-07-16 21:20:00,77.2,71.0,29.47,West,270,1.0,2.0,80,0.00,,,0.00,Rainwise IP-100,2013-07-17 01:20:00,
2013-07-16 21:25:00,77.0,71.0,29.47,West,270,1.0,2.0,81,0.00,,,0.00,Rainwise IP-100,2013-07-17 01:25:00,
2013-07-16 21:30:00,77.0,70.0,29.47,WNW,292,1.0,2.0,79,0.00,,,0.00,Rainwise IP-100,2013-07-17 01:30:00,
2013-07-16 21:35:00,76.9,70.0,29.47,West,270,2.0,2.0,79,0.00,,,0.00,Rainwise IP-100,2013-07-17 01:35:00,
2013-07-16 21:40:00,76.5,70.0,29.47,West,270,2.0,2.0,81,0.00,,,0.00,Rainwise IP-100,2013-07-17 01:40:00,
2013-07-16 21:45:00,75.8,70.0,29.47,West,270,1.0,2.0,84,0.00,,,0.00,Rainwise IP-100,2013-07-17 01:45:00,
2013-07-16 21:50:00,75.4,71.0,29.47,West,270,2.0,2.0,85,0.00,,,0.00,Rainwise IP-100,2013-07-17 01:50:00,
2013-07-16 21:55:00,75.1,70.0,29.47,WSW,247,2.0,2.0,85,0.00,,,0.00,Rainwise IP-100,2013-07-17 01:55:00,
2013-07-16 22:00:00,74.8,71.0,29.47,WSW,247,1.0,2.0,87,0.00,,,0.00,Rainwise IP-100,2013-07-17 02:00:00,
2013-07-16 22:05:00,74.5,71.0,29.47,WSW,247,1.0,2.0,87,0.00,,,0.00,Rainwise IP-100,2013-07-17 02:05:00,
2013-07-16 22:10:00,74.4,70.0,29.47,WSW,247,1.0,2.0,87,0.00,,,0.00,Rainwise IP-100,2013-07-17 02:10:00,
2013-07-16 22:15:00,74.5,71.0,29.46,SW,225,1.0,2.0,87,0.00,,,0.00,Rainwise IP-100,2013-07-17 02:15:00,
2013-07-16 22:20:00,74.4,70.0,29.46,SW,225,1.0,2.0,86,0.00,,,0.00,Rainwise IP-100,2013-07-17 02:20:00,
2013-07-16 22:25:00,74.3,70.0,29.46,SW,225,2.0,2.0,87,0.00,,,0.00,Rainwise IP-100,2013-07-17 02:25:00,
2013-07-16 22:30:00,73.9,70.0,29.46,WSW,247,1.0,2.0,88,0.00,,,0.00,Rainwise IP-100,2013-07-17 02:30:00,
2013-07-16 22:35:00,73.6,70.0,29.46,WSW,247,1.0,2.0,89,0.00,,,0.00,Rainwise IP-100,2013-07-17 02:35:00,
2013-07-16 22:40:00,73.4,70.0,29.46,WSW,247,2.0,2.0,90,0.00,,,0.00,Rainwise IP-100,2013-07-17 02:40:00,
2013-07-16 22:45:00,73.1,70.0,29.46,WSW,247,1.0,2.0,92,0.00,,,0.00,Rainwise IP-100,2013-07-17 02:45:00,
2013-07-16 22:50:00,73.1,70.0,29.46,WSW,247,1.0,2.0,92,0.00,,,0.00,Rainwise IP-100,2013-07-17 02:50:00,
2013-07-16 22:55:00,73.1,70.0,29.46,WSW,247,2.0,2.0,91,0.00,,,0.00,Rainwise IP-100,2013-07-17 02:55:00,
2013-07-16 23:00:00,73.0,70.0,29.46,WSW,247,2.0,2.0,91,0.00,,,0.00,Rainwise IP-100,2013-07-17 03:00:00,
2013-07-16 23:05:00,72.7,70.0,29.46,WSW,247,2.0,2.0,92,0.00,,,0.00,Rainwise IP-100,2013-07-17 03:05:00,
2013-07-16 23:11:00,72.8,70.0,29.46,WSW,247,2.0,3.0,92,0.00,,,0.00,Rainwise IP-100,2013-07-17 03:11:00,
2013-07-16 23:16:00,73.1,70.0,29.46,SSW,202,2.0,2.0,91,0.00,,,0.00,Rainwise IP-100,2013-07-17 03:16:00,
2013-07-16 23:20:00,73.6,70.0,29.47,SW,225,1.0,4.0,89,0.00,,,0.00,Rainwise IP-100,2013-07-17 03:20:00,
2013-07-16 23:26:00,73.7,70.0,29.47,SW,225,2.0,3.0,89,0.00,,,0.00,Rainwise IP-100,2013-07-17 03:26:00,
2013-07-16 23:31:00,73.7,70.0,29.47,SW,225,1.0,4.0,88,0.00,,,0.00,Rainwise IP-100,2013-07-17 03:31:00,
2013-07-16 23:36:00,73.6,70.0,29.46,South,180,1.0,2.0,89,0.00,,,0.00,Rainwise IP-100,2013-07-17 03:36:00,
2013-07-16 23:41:00,73.6,70.0,29.46,SW,225,1.0,2.0,89,0.00,,,0.00,Rainwise IP-100,2013-07-17 03:41:00,
2013-07-16 23:46:00,73.6,70.0,29.47,SW,225,1.0,2.0,89,0.00,,,0.00,Rainwise IP-100,2013-07-17 03:46:00,
2013-07-16 23:51:00,73.7,70.0,29.46,SSW,202,2.0,3.0,89,0.00,,,0.00,Rainwise IP-100,2013-07-17 03:51:00,
2013-07-16 23:56:00,73.9,71.0,29.46,SW,225,2.0,3.0,89,0.00,,,0.00,Rainwise IP-100,2013-07-17 03:56:00,